FENGYUN 1C DEB

Satellite information

Favourite Embed

Satellite Type and Status

DEBRISIN ORBIT

Key statistics

Satellite FENGYUN 1C DEB at a glance.

Uptime

9663

Days in orbit

Revolutions

≈ 14.5

Per day

Orbit

SSO

Sun Synchronous Orbit

Inclination

99.5

Latest

Satellite identification and parameters

Extended collection of information and parameters for FENGYUN 1C DEB.

Object identification

Identified? True

Debris? True

Object name: FENGYUN 1C DEB

International designator: 1999-025CXH

Object number (NORAD): 32316

Object ID (CCSDS): 32316

Country: PEOPLES REPUBLIC OF CHINA (PRC)

Current information (Y/N): Y

RCS size: SMALL

Orbital parameters

Period: 99.241 minutes

Inclination: 99.5359 deg

SMA: 7100.499 km

Apoapsis: 742.96 km

Periapsis: 701.767 km

RAAN: 314.9488 deg

Eccentricy: 0.00290069

Argument of periapsis: 122.0487 deg

Mean anomaly: 254.058 deg

Mean motion: 14.51006886 rev/day

Mean motion (dot): 0.00004711 rev/day2

B* drag term: 0.0011979568 1/REarth

Two-line elements (TLE)

Creation date: Oct. 22, 2025, 5:40 p.m.

Reference frame: TEME

Reference center: EARTH

Epoch: Oct. 22, 2025, 7:18 a.m. UTC

TLE line 0: 0 FENGYUN 1C DEB

TLE line 1: 1 32316U 99025CXH 25295.30424072 .00004711 00000-0 11980-2 0 9999

TLE line 2: 2 32316 99.5359 314.9488 0029007 122.0487 254.0580 14.51006886950317

Live tracking on map

Real-time ground track for satellite FENGYUN 1C DEB.

In-orbit conjunctions

A list of the most updated potential collisions computed for object FENGYUN 1C DEB.

Target Orbit TCA Probability of collision Miss distance Type
COSMOS 2251 DEB LEO 2025-09-07 18:20:21 0.000104016 360.0 (m) DEBRIS
COSMOS 2251 DEB LEO 2024-11-08 20:58:23 0.0001296957 653.0 (m) DEBRIS

Associated space launch

Chinese polar orbiting meteorological satellite

FENGYUN 1C DEB was lifted into orbit during the mission ‘Long March 4B | Feng Yun 1C’, on board a Long March 4B space rocket.

The launch took place on May 10, 1999, 1:33 a.m. from Launch Complex 7.

For more information about the launch, click the button.

Launch to space Long March 4B | Feng Yun 1C
Long March 4B | Feng Yun 1C

Agency: N/A

Status: Launch Successful

Launch date: May 10, 1999, 1:33 a.m. UTC

Rocket: Long March 4B

Launch pad: Launch Complex 7

Location: Taiyuan Satellite Launch Center, People's Republic of China

...

Latest news about this satellite

There are no fresh news available about this satellite. Check back as we update our databases every day.


Newsletter sign-up

Weekly statistics, charts and insights to help you stay on top of the space industry.